Total_Precipitation_Accumulation
0.12 0.13 0.15 0.15 0.14 0.17 0.22 0.30 0.34 0.36 0.40 0.45 0.56 0.64 0.92 1.15 1.26 1.42 1.58 1.80 1.98 2.18 2.33 2.53 2.92 3.16 3.35 3.50 3.75 4.03 4.45 4.86 5.01 4.87 4.85 4.91 4.89 4.79 4.48 4.36 4.53 4.56 4.30 4.32
0.13 0.18 0.14 0.13 0.12 0.15 0.20 0.28 0.36 0.41 0.42 0.45 0.64 0.76 0.96 1.40 1.57 1.54 1.57 1.57 1.62 2.06 2.29 2.57 2.95 3.11 3.07 3.25 3.54 3.94 4.44 4.81 4.73 4.91 5.18 5.21 5.14 4.66 4.45 4.42 4.51 4.33 4.06 4.00
0.17 0.14 0.09 0.10 0.12 0.15 0.20 0.22 0.30 0.38 0.52 0.51 0.66 1.15 1.27 1.53 1.67 1.52 1.46 1.47 1.43 1.63 1.96 2.16 2.39 2.59 2.80 3.22 3.67 4.03 4.39 4.54 4.60 4.88 5.04 4.79 4.69 4.32 4.34 4.47 4.43 4.19 4.02 3.95
0.14 0.12 0.09 0.11 0.13 0.14 0.21 0.18 0.20 0.30 0.52 0.70 0.78 1.52 1.74 1.89 1.78 1.45 1.46 1.51 1.62 1.74 1.83 1.97 2.05 2.37 2.76 3.19 3.81 4.26 4.29 4.37 4.29 4.48 4.67 4.55 4.26 4.11 4.09 4.15 3.95 3.91 3.81 3.69
0.15 0.12 0.13 0.11 0.11 0.11 0.16 0.16 0.18 0.28 0.43 0.68 0.83 1.31 1.83 1.84 1.77 1.39 1.29 1.48 1.72 1.71 1.75 1.99 1.96 2.18 2.46 2.89 3.32 3.77 4.14 4.24 4.10 4.10 4.26 4.45 4.29 4.05 3.88 3.79 3.74 3.70 3.70 3.52
0.14 0.12 0.12 0.12 0.12 0.12 0.13 0.17 0.28 0.41 0.64 1.08 0.85 1.00 1.50 1.74 1.61 1.31 1.30 1.42 1.59 1.76 1.78 1.91 2.19 2.27 2.42 2.70 3.08 3.37 3.60 3.63 3.64 3.66 3.75 3.91 4.02 4.01 3.81 3.66 3.68 3.63 3.53 3.43
0.24 0.24 0.18 0.15 0.14 0.14 0.16 0.31 0.77 1.22 1.48 1.29 0.87 0.97 1.41 1.37 1.15 1.05 1.14 1.40 1.66 1.95 1.94 1.94 2.13 2.27 2.37 2.48 2.67 2.87 2.97 3.05 3.08 3.14 3.15 3.18 3.35 3.45 3.36 3.32 3.41 3.45 3.37 3.32
0.34 0.34 0.24 0.19 0.16 0.16 0.19 0.35 0.83 1.14 1.25 1.16 1.07 1.28 1.38 1.12 0.97 0.97 1.05 1.26 1.61 1.74 1.74 1.82 1.93 1.90 1.92 1.97 2.10 2.27 2.37 2.44 2.46 2.56 2.70 2.73 2.97 3.05 3.10 3.25 3.12 3.17 3.12 3.15
0.22 0.22 0.21 0.20 0.20 0.20 0.27 0.37 0.40 0.64 0.79 1.21 1.43 1.52 1.40 1.06 1.19 1.18 1.27 1.34 1.36 1.42 1.45 1.45 1.51 1.61 1.73 1.75 1.80 1.90 2.01 2.08 2.08 2.19 2.36 2.41 2.51 2.70 2.89 3.02 2.84 2.66 2.75 2.70
0.14 0.19 0.20 0.16 0.16 0.20 0.29 0.42 0.57 0.85 1.17 1.39 1.55 1.84 2.00 1.73 1.67 1.57 1.69 1.83 1.53 1.26 1.28 1.30 1.28 1.35 1.41 1.49 1.62 1.75 1.85 2.08 2.15 2.16 2.27 2.18 2.33 2.47 2.66 2.71 2.50 2.49 2.64 2.67
0.13 0.17 0.24 0.23 0.22 0.25 0.39 0.49 0.59 0.77 0.91 1.26 1.71 1.95 1.65 1.83 1.89 1.79 1.65 1.65 1.51 1.19 1.08 1.16 1.09 1.10 1.19 1.29 1.47 1.65 1.92 2.13 2.12 1.98 2.10 2.19 2.23 2.38 2.43 2.41 2.30 2.42 2.55 2.74
0.17 0.18 0.26 0.28 0.27 0.25 0.35 0.51 0.61 0.83 0.94 1.05 1.37 1.70 1.26 1.46 1.44 1.31 1.32 1.18 1.12 1.10 0.90 0.99 1.05 1.00 1.04 1.11 1.25 1.47 1.71 1.90 1.94 1.88 1.91 2.09 2.23 2.28 2.26 2.20 2.23 2.26 2.28 2.36
0.19 0.24 0.41 0.63 0.58 0.39 0.35 0.37 0.44 0.56 0.73 0.88 1.24 1.58 1.13 1.17 1.25 1.21 1.16 1.13 1.00 1.08 1.00 0.95 1.05 1.09 1.07 1.10 1.22 1.40 1.48 1.72 1.96 2.00 2.05 2.20 2.16 2.07 2.10 2.32 2.43 2.35 2.31 2.33
0.17 0.22 0.36 0.67 0.71 0.56 0.44 0.42 0.43 0.48 0.65 0.70 0.85 1.25 1.23 1.25 1.28 1.32 1.24 1.07 0.98 1.00 1.04 0.96 1.00 1.04 0.97 1.05 1.20 1.37 1.48 1.65 1.85 2.08 2.22 2.32 2.20 2.17 2.25 2.38 2.49 2.46 2.37 2.39
0.17 0.18 0.22 0.33 0.43 0.43 0.40 0.40 0.41 0.45 0.50 0.66 0.79 0.97 1.12 1.15 1.22 1.37 1.25 1.10 1.05 0.96 0.97 0.99 0.96 0.91 0.90 0.92 1.03 1.26 1.51 1.72 1.86 2.10 2.22 2.31 2.35 2.36 2.42 2.43 2.49 2.47 2.37 2.36
0.23 0.25 0.28 0.38 0.47 0.47 0.41 0.41 0.38 0.38 0.35 0.43 0.67 0.97 0.96 0.91 1.00 1.19 1.20 1.27 1.26 1.15 0.99 0.91 0.92 0.96 0.98 0.92 0.94 1.03 1.28 1.56 1.74 1.94 2.09 2.16 2.31 2.46 2.48 2.45 2.50 2.48 2.50 2.54
0.30 0.36 0.47 0.52 0.56 0.64 0.66 0.52 0.51 0.51 0.48 0.55 0.83 0.99 0.84 0.84 0.90 1.00 1.05 1.19 1.17 1.14 1.24 1.20 1.10 1.17 1.10 1.06 1.08 1.12 1.20 1.45 1.68 1.86 1.99 2.11 2.24 2.36 2.38 2.33 2.47 2.57 2.53 2.45
0.35 0.45 0.51 0.55 0.75 1.05 0.80 0.53 0.47 0.49 0.57 0.56 0.65 0.73 0.71 0.78 0.83 0.96 1.14 1.16 1.08 0.96 1.01 1.18 1.26 1.31 1.30 1.23 1.29 1.30 1.34 1.48 1.68 1.89 2.01 2.10 2.25 2.29 2.32 2.34 2.28 2.30 2.32 2.30
0.34 0.51 0.61 0.70 0.85 0.89 0.78 0.63 0.61 0.64 0.73 0.58 0.60 0.67 0.74 0.83 0.96 1.18 1.07 1.01 1.03 0.94 1.01 1.08 1.13 1.23 1.42 1.45 1.46 1.49 1.60 1.74 1.76 1.89 2.06 2.20 2.28 2.28 2.28 2.30 2.23 2.25 2.27 2.21
0.38 0.50 0.70 0.77 1.05 1.16 0.94 0.70 0.71 0.83 1.28 0.88 0.75 0.86 0.97 0.99 1.32 1.46 1.07 1.07 1.16 0.99 0.96 1.07 1.16 1.21 1.37 1.51 1.60 1.63 1.73 1.91 1.90 1.96 2.09 2.17 2.23 2.33 2.26 2.36 2.44 2.43 2.35 2.29
0.72 0.76 0.80 0.84 1.12 1.23 0.87 0.70 0.84 1.58 1.80 1.07 0.96 1.04 1.16 1.24 1.26 1.16 1.01 1.17 1.31 1.11 1.03 0.99 1.10 1.36 1.47 1.56 1.71 1.78 1.75 1.80 1.85 2.01 2.13 2.21 2.28 2.36 2.33 2.40 2.47 2.50 2.46 2.49
1.08 1.08 1.03 1.12 1.49 1.66 0.99 0.91 1.33 1.58 1.23 1.13 1.10 1.08 1.10 1.07 1.04 0.99 0.95 1.06 1.21 1.25 1.29 1.33 1.42 1.53 1.57 1.62 1.80 1.93 1.98 1.92 2.02 2.12 2.12 2.23 2.36 2.19 2.17 2.43 2.53 2.57 2.60 2.55
1.22 1.30 1.38 1.46 1.62 1.48 1.32 1.36 1.39 1.28 1.34 1.28 1.16 1.13 1.10 1.09 1.08 1.10 1.05 1.01 1.12 1.29 1.34 1.39 1.45 1.49 1.58 1.69 1.80 2.03 2.10 2.07 2.08 2.18 2.24 2.29 2.33 2.41 2.47 2.51 2.58 2.56 2.50 2.46
1.40 1.27 1.55 1.78 1.73 1.55 1.56 1.51 1.44 1.39 1.41 1.33 1.26 1.28 1.21 1.24 1.36 1.34 1.29 1.25 1.15 1.16 1.21 1.27 1.42 1.48 1.65 1.85 2.00 2.22 2.25 2.19 2.22 2.33 2.45 2.45 2.40 2.44 2.60 2.73 2.70 2.60 2.45 2.51
1.68 1.66 1.88 2.19 2.12 1.85 1.68 1.51 1.40 1.33 1.26 1.20 1.21 1.30 1.34 1.29 1.41 1.44 1.53 1.56 1.48 1.36 1.35 1.46 1.63 1.75 1.86 1.97 2.04 2.22 2.37 2.46 2.54 2.59 2.61 2.64 2.63 2.67 2.74 2.72 2.66 2.65 2.59 2.52
1.75 2.03 2.37 2.55 2.16 1.96 1.88 1.67 1.59 1.38 1.27 1.25 1.26 1.26 1.33 1.32 1.39 1.38 1.48 1.64 1.64 1.65 1.70 1.69 1.71 1.88 1.98 2.00 2.10 2.25 2.48 2.74 2.95 2.90 2.76 2.79 2.85 2.87 2.81 2.82 2.64 2.49 2.38 2.29